#timestamp,LO_Frequency,Hit,StdDev 
1578974415.5,286046999.1,N
1578974435.3,286046998.1,N
1578974455.2,286046996.6,N
1578974475.0,286046997.6,N
1578974475.9,286046997.6,N
1578974495.8,286046998.4,N
1578974515.6,286046998.6,N
1578974535.4,286047001.1,N
1578974555.3,286046999.0,N
1578974575.1,286046998.6,N
1578974595.8,286046998.1,N
1578974615.7,286047000.1,N
1578974635.5,286047002.1,N
1578974655.4,286047002.3,N
1578974675.2,286046998.9,N
1578974695.0,286046999.6,N
1578974695.9,286046999.6,N
1578974715.8,286046998.2,N
1578974735.6,286046996.8,N
1578974755.5,286046996.6,N
1578974775.3,286046998.7,N
1578974795.1,286046998.5,N
1578974815.9,286046998.7,N
1578974835.7,286047000.7,N
1578974855.6,286047000.9,N
1578974875.4,286047002.6,N
1578974895.2,286047000.5,N
1578974915.1,286046998.5,N
1578974916.0,286046998.5,N
1578974935.8,286047000.6,N
1578974955.7,286046999.0,N
1578974975.5,286046999.1,N
1578974995.3,286046998.4,N
1578975015.2,286046999.9,N
1578975035.0,286046998.5,N
1578975035.9,286046998.5,N
1578975055.7,286047000.0,N
1578975075.6,286047002.3,N
1578975095.4,286047000.0,N
1578975115.3,286047001.1,N
1578975135.1,286046999.2,N
1578975136.0,286046999.2,N
1578975155.8,286046999.0,N
1578975175.7,286046999.1,N
1578975195.5,286046998.1,N
1578975215.4,286046998.4,N
1578975235.2,286046998.6,N
1578975255.0,286047000.6,N
1578975255.9,286047000.6,N
1578975275.8,286047000.2,N
1578975295.6,286046999.3,N
1578975315.5,286046997.8,N
1578975335.3,286046997.4,N
1578975355.1,286046997.5,N
1578975375.9,286046997.2,N
1578975395.7,286046999.0,N
1578975415.5,286047000.6,N
1578975435.4,286047001.9,N
1578975455.2,286047001.5,N
1578975475.1,286047002.8,N
1578975476.0,286047002.8,N
1578975495.8,286047000.7,N
1578975515.6,286046998.6,N
1578975535.5,286047000.1,N
1578975555.3,286047001.5,N
1578975575.2,286047000.1,N
1578975595.9,286047000.5,N
1578975615.7,286046998.5,N
1578975635.6,286047001.2,N
1578975655.4,286047000.6,N
1578975675.2,286047000.5,N
1578975695.1,286047000.1,N
1578975696.0,286047000.1,N
1578975715.8,286047004.0,N
1578975735.7,286047004.0,N
1578975755.5,286047002.4,N
1578975775.3,286047000.9,N
1578975795.2,286046998.8,N
1578975815.0,286046997.0,N
1578975815.9,286046997.0,N
1578975835.8,286046997.6,N
1578975855.6,286046997.7,N
1578975875.4,286046995.4,N
1578975895.3,286046995.5,N
1578975915.1,286046996.0,N
1578975935.9,286046995.4,N
1578975955.7,286046997.6,N
1578975975.5,286046997.9,N
1578975995.4,286046996.2,N
1578976015.2,286046995.8,N
1578976035.0,286046995.2,N
1578976035.9,286046995.2,N
1578976055.8,286046996.3,N
1578976075.6,286046994.4,N
1578976095.5,286046992.0,N
1578976115.3,286046990.3,Y
1578976135.1,286046994.4,P
1578976155.9,286046996.3,N
1578976175.7,286046993.4,P
1578976195.6,286046994.1,Y
1578976215.4,286046996.5,P
1578976235.2,286046997.6,P
1578976255.1,286046995.4,P
1578976256.0,286046995.4,Y
1578976275.8,286047001.0,P
1578976295.6,286047000.2,N
1578976315.5,286047002.7,N
1578976335.3,286047000.7,N
1578976355.2,286046998.5,N
1578976375.9,286046996.5,N
1578976395.7,286046996.8,N
1578976415.6,286046994.9,N
1578976435.4,286046993.3,N
1578976455.3,286046996.1,N
1578976475.1,286046994.2,N
1578976495.8,286046994.5,N
1578976515.7,286046991.7,N
1578976535.5,286046993.2,N
1578976555.4,286046990.8,N
1578976575.2,286046990.4,N
1578976595.0,286046992.4,N
1578976595.9,286046992.4,N
1578976615.8,286046991.8,N
1578976635.6,286046992.3,N
1578976655.5,286046992.7,N
1578976675.3,286046993.2,N
1578976695.1,286046991.1,N
1578976715.9,286046991.2,N
1578976735.7,286046989.2,Y
1578976755.6,286046992.3,P
1578976775.4,286046992.3,P
1578976795.2,286046990.4,P
1578976815.1,286046990.9,Y
1578976816.0,286046990.9,P
1578976835.8,286046999.0,N
1578976855.7,286046999.2,N
1578976875.5,286046999.3,N
1578976895.3,286046999.1,N
1578976915.2,286046996.9,N
1578976935.0,286046996.6,N
1578976935.9,286046996.6,N
1578976955.7,286046997.2,N
1578976975.6,286046997.6,N
1578976995.4,286046995.3,N
1578977015.3,286046997.3,N
1578977035.1,286046999.4,N
1578977036.0,286046999.4,N
1578977055.8,286046999.2,N
1578977075.7,286046999.4,N
1578977095.5,286046996.9,N
1578977115.4,286046996.8,N
1578977135.2,286046996.5,N
1578977155.0,286046996.5,N
1578977155.9,286046996.5,N
1578977175.8,286046997.2,N
1578977195.6,286046998.0,N
1578977215.5,286046996.0,N
1578977235.3,286046995.9,N
1578977255.1,286046998.0,N
1578977275.9,286046997.4,N
1578977295.7,286046997.3,N
1578977315.5,286046996.8,N
1578977335.4,286046995.4,N
1578977355.2,286046995.0,N
1578977375.1,286046999.2,N
1578977376.0,286046999.2,N
1578977395.8,286046999.4,N
1578977415.6,286046996.9,N
1578977435.5,286046997.7,N
1578977455.3,286046996.7,N
1578977475.1,286046999.6,N
1578977495.9,286046999.0,N
1578977515.7,286047001.1,N
1578977535.6,286047000.0,N
1578977555.4,286047002.3,N
1578977575.2,286047002.0,N
1578977595.1,286047002.6,N
1578977596.0,286047002.6,N
1578977615.8,286047004.4,N
1578977635.7,286047005.9,N
1578977655.5,286047003.3,N
1578977675.3,286047005.9,N
1578977695.2,286047003.1,N
1578977715.0,286047005.8,N
1578977715.9,286047005.8,N
1578977735.8,286047005.8,N
1578977755.6,286047004.8,N
1578977775.4,286047004.7,N
1578977795.3,286047004.7,N
1578977815.1,286047005.5,N
1578977835.9,286047004.5,N
1578977855.7,286047004.8,N
1578977875.5,286047004.7,N
1578977895.4,286047005.1,N
1578977915.2,286047006.9,N
1578977935.0,286047007.1,N
1578977935.9,286047007.1,N
1578977955.8,286047004.9,N
1578977975.6,286047005.2,N
1578977995.5,286047007.1,N
